Location: Unspecified
(0.0000°N, 0.0000°E)
Time: 23:26:50
(UTC+00:00)

Hubble Space Telescope - Pass Details

Date: 13 July 2019
Orbit: 536 x 540 km, 28.5° (Epoch: 22 July)

Event Time Altitude Azimuth Distance (km) Brightness Sun altitude
Rises 19:50:01 0° 295° (WNW) 2,671 5.8 -24.1°
Reaches altitude 10° 19:52:17 10° 292° (WNW) 1,782 4.5 -24.6°
Enters shadow 19:55:43 53° 256° (WSW) 660 1.4 -25.4°
